Regional Weather Roundup
Issued by NWS

Home | Current Version | Previous Version | Text Only | Print | Product List | Glossary Off
Versions: 1 2 3 4 5 6 7 8 9 10 11 12 13 14 15 16 17 18 19 20 21 22 23 24 25 26 27 28 29 30 31 32 33 34 35 36 37 38 39 40 41 42 43 44 45 46 47 48 49 50

000
ASUS45 KABQ 280510
RWRNM
WEATHER ROUNDUP FOR NEW MEXICO
NATIONAL WEATHER SERVICE ALBUQUERQUE NM
1100 PM MDT SUN JUL 27 2014

NOTE: "FAIR" MEANS FEW OR NO CLOUDS BELOW 12,000 FEET AGL WITH NO
       SIGNIFICANT WEATHER OR OBSTRUCTIONS TO VISION.

      THIS PRODUCT IS RELEASED AS TWO VERSIONS.  ONE VERSION NEAR
      THE TOP OF THE HOUR CONTAINING PRELIMINARY DATA FROM ALBUQUERQUE
      AND OTHER STATIONS.  A FINAL VERSION WITH ADDITIONAL DATA IS
      ISSUED ABOUT 10 MINUTES AFTER THE HOUR.

NMZ501-503-504-510>518-280600-
NORTHWEST PLATEAU/NORTHCENTRAL MOUNTAINS

CITY           SKY/WX    TMP DP  RH WIND       PRES   REMARKS
FARMINGTON     CLOUDY    68  56  65 CALM      30.38F
LOS ALAMOS     CLOUDY    62  55  80 NW12      30.48F
SANTA FE       CLOUDY    64  56  75 N14       30.41R
TAOS           CLOUDY    68  45  42 SE12      30.50R
ANGEL FIRE     LGT RAIN  57  51  79 SE7       30.62R

$$
NMZ402-403-502-505>509-280600-
WESTCENTRAL MOUNTAINS/SOUTHWEST MOUNTAINS

CITY           SKY/WX    TMP DP  RH WIND       PRES   REMARKS
GALLUP         LGT RAIN  61  55  81 N5        30.42F
SILVER CITY    CLOUDY    72  55  56 NW16G23   30.30R

$$
NMZ407-409-411-412-280600-
SOUTHERN DESERTS

CITY           SKY/WX    TMP DP  RH WIND       PRES   REMARKS
LORDSBURG      FAIR      72  59  64 NW14G20   30.21F
DEMING         CLOUDY    78  55  44 W16G23    30.17F
LAS CRUCES     CLOUDY    77  58  51 S8        30.25R
HOLLOMAN AFB   PTCLDY    90  47  22 N13       30.10S
ALAMOGORDO     PTCLDY    90  46  22 E22G29    30.12S
T OR C         PTCLDY    84  46  26 W8        30.18R

$$
NMZ519>523-280600-
CENTRAL VALLEYS/CENTRAL HIGHLANDS

CITY           SKY/WX    TMP DP  RH WIND       PRES   REMARKS
ALBUQUERQUE    PTCLDY    77  55  46 E14       30.30R
DOUBLE EAGLE   PTCLDY    71  52  51 N12       30.35R
MORIARTY ARPT  FAIR      69  55  60 E13       30.40R
CLINES CORNERS PTCLDY    64  54  69 E16       30.46R
BELEN          MOCLDY    73  53  48 NW17G24   30.29R
SOCORRO        FAIR      81  50  33 NW12G18   30.23R

$$
NMZ524>526-539-540-280600-
SOUTHCENTRAL MOUNTAINS

CITY           SKY/WX    TMP DP  RH WIND       PRES   REMARKS
RUIDOSO        PTCLDY    72  46  40 SE8       30.43R

$$
NMZ527>531-280600-
NORTHEAST HIGHLANDS/NORTHEAST PLAINS

CITY           SKY/WX    TMP DP  RH WIND       PRES   REMARKS
LAS VEGAS      CLOUDY    59  56  89 N17       30.52R
RATON          LGT RAIN  64  60  87 SE7       30.48R
CLAYTON        CLOUDY    69  57  65 NE6       30.38R

$$
NMZ532>537-280600-
EASTCENTRAL PLAINS

CITY           SKY/WX    TMP DP  RH WIND       PRES   REMARKS
TUCUMCARI      CLOUDY    79  60  52 NE14      30.26R
CANNON AFB     PTCLDY    78  60  53 NE9       30.27R
CLOVIS AIRPORT NOT AVBL

$$
NMZ028-029-538-280600-
SOUTHEAST PLAINS

CITY           SKY/WX    TMP DP  RH WIND       PRES   REMARKS
ROSWELL        CLEAR     84  51  31 E6        30.14R
ARTESIA        CLEAR     84  54  34 NE7       30.12S
CARLSBAD       MOCLDY    91  53  27 E13       30.08R
HOBBS          PTCLDY    82  54  36 E8        30.17R


$$



USA.gov is the U.S. government's official web portal to all federal, state and local government web resources and services.